Regional Weather Roundup
Issued by NWS

Home | Current Version | Previous Version | Text Only | Print | Product List | Glossary On
Versions: 1 2 3 4 5 6 7 8 9 10 11 12 13 14 15 16 17 18 19 20 21 22 23 24 25 26 27 28 29 30 31 32 33 34 35 36 37 38 39 40 41 42 43 44 45 46 47 48 49 50
000
ASUS43 KBIS 092102
RWRND

NORTH DAKOTA REGIONAL WEATHER ROUNDUP
NATIONAL WEATHER SERVICE BISMARCK ND
300 PM CST FRI DEC 09 2016

NOTE: "FAIR" INDICATES FEW OR NO CLOUDS BELOW 12,000 FEET WITH NO
SIGNIFICANT WEATHER AND/OR OBSTRUCTIONS TO VISIBILITY.


NDZ001>003-009>011-017-092200-
NORTHWEST NORTH DAKOTA

CITY           SKY/WX    TMP DP  RH WIND       PRES   REMARKS
WILLISTON      MOSUNNY   -2 -11  65 NE7       30.54F WCI -15
MINOT          SUNNY     -8 -14  74 W10       30.54R WCI -26
MINOT AFB      SUNNY    -10 -16  74 W9        30.54R WCI -28
$$

NDZ018>021-031>035-040>046-092200-
SOUTHWEST NORTH DAKOTA

CITY           SKY/WX    TMP DP  RH WIND       PRES   REMARKS
BISMARCK       MOSUNNY    0  -7  72 NW9       30.55R WCI -15
GARRISON         N/A     -6 -12  75 NW12      30.51S WCI -25
HETTINGER ARPT PTSUNNY   -1  -8  72 N5        30.43S WCI -11
$$

NDZ004>008-012>016-024-026-027-054-092200-
NORTHEAST NORTH DAKOTA

CITY           SKY/WX    TMP DP  RH WIND       PRES   REMARKS
GRAND FORKS    MOSUNNY    2  -8  63 NW8       30.57S WCI -12
GRND FRKS AFB  SUNNY      1  -9  62 NW9       30.56S WCI -14
DEVILS LAKE    MOSUNNY   -5 -11  75 NW12      30.51F WCI -23
$$

NDZ022-023-025-028>030-036>039-047>053-092200-
SOUTHEAST NORTH DAKOTA

CITY           SKY/WX    TMP DP  RH WIND       PRES   REMARKS
FARGO          PTSUNNY    6  -2  69 NW10      30.55F HAZE    WCI  -9
JAMESTOWN      SUNNY     -3  -9  75 NW12      30.51F WCI -21
$$





USA.gov is the U.S. government's official web portal to all federal, state and local government web resources and services.